This is the latest recevied weather packets stored in our database for station/object RUSSARO. If no packets are shown the sender has not sent any weather packets the latest 10 day(s).
| Time | Temp. | Humidity | Pressure | Rain* | Wind** | Luminosity | Snow |
|---|---|---|---|---|---|---|---|
| 1778041643 | 6.11° C | 70% | 1012.4 hPa | 0 mm | - | - | - |
| 1778040445 | 5.56° C | 75% | 1012.2 hPa | 0 mm | - | - | - |
| 1778039244 | 5.56° C | 75% | 1012 hPa | 0 mm | - | - | - |
| 1778038043 | 4.44° C | 80% | 1011.8 hPa | 0 mm | - | - | - |
| 1778036844 | 4.44° C | 83% | 1011.6 hPa | 0 mm | - | - | - |
| 1778035644 | 3.89° C | 87% | 1011.4 hPa | 0 mm | - | - | - |
| 1778034443 | 3.89° C | 97% | 1011.4 hPa | 0 mm | - | - | - |
| 1778033243 | 3.89° C | 97% | 1011.2 hPa | 0 mm | - | - | - |
| 1778032043 | 3.89° C | 97% | 1011 hPa | 0 mm | - | - | - |
| 1778030843 | 3.89° C | 97% | 1010.7 hPa | 0 mm | - | - | - |
| 1778029643 | 3.33° C | 96% | 1010.6 hPa | 0 mm | - | - | - |
| 1778028442 | 3.33° C | 95% | 1010.4 hPa | 0 mm | - | - | - |
| 1778027243 | 3.89° C | 92% | 1010.3 hPa | 0 mm | - | - | - |
| 1778026043 | 3.89° C | 89% | 1010.3 hPa | 0 mm | - | - | - |
| 1778024843 | 3.89° C | 89% | 1010.1 hPa | 0 mm | - | - | - |
| 1778023643 | 3.89° C | 90% | 1010 hPa | 0 mm | - | - | - |
| 1778022443 | 3.89° C | 91% | 1009.9 hPa | 0 mm | - | - | - |
| 1778021243 | 3.89° C | 91% | 1009.9 hPa | 0 mm | - | - | - |
| 1778020042 | 4.44° C | 90% | 1009.9 hPa | 0 mm | - | - | - |
| 1778018843 | 4.44° C | 89% | 1009.8 hPa | 0 mm | - | - | - |
| 1778017643 | 4.44° C | 90% | 1009.7 hPa | 0 mm | - | - | - |
| 1778016442 | 4.44° C | 88% | 1009.7 hPa | 0 mm | - | - | - |
| 1778015242 | 4.44° C | 86% | 1009.6 hPa | 0 mm | - | - | - |
| 1778014042 | 4.44° C | 78% | 1009.4 hPa | 0 mm | - | - | - |
| 1778012843 | 4.44° C | 78% | 1009.3 hPa | 0 mm | - | - | - |
* Rain latest hour (hover to see other rain measurements)
** Current wind speed in m/s (hover to see current wind gust speed)